Radiation Dose at Monitoring Post of Fukushima Daini Nuclear Power Station
Date,Time,MP-1(microSv/h),MP-2(microSv/h),MP-3(microSv/h),MP-4(microSv/h),MP-5(microSv/h),MP-6(microSv/h),MP-7(microSv/h),Wind Direction,Wind Velocity(m/s),Rain
2018/12/03,00:00,0.261,0.192,0.310,0.298,0.281,0.157,0.095,south-southwest,3.9,No
2018/12/03,00:10,0.263,0.193,0.309,0.298,0.281,0.157,0.095,south-southwest,4.3,No
2018/12/03,00:20,0.262,0.193,0.310,0.298,0.282,0.157,0.096,south-southwest,4.0,No
2018/12/03,00:30,0.262,0.193,0.310,0.299,0.280,0.157,0.096,south-southwest,4.3,No
2018/12/03,00:40,0.263,0.193,0.308,0.298,0.282,0.158,0.095,south-southwest,3.4,No
2018/12/03,00:50,0.263,0.193,0.311,0.299,0.281,0.157,0.095,south-southwest,3.3,No
2018/12/03,01:00,0.263,0.193,0.310,0.299,0.282,0.157,0.096,south-southeast,1.6,No
2018/12/03,01:10,0.263,0.192,0.308,0.300,0.282,0.158,0.095,south,3.0,No
2018/12/03,01:20,0.262,0.193,0.311,0.299,0.281,0.158,0.095,south,2.9,No
2018/12/03,01:30,0.264,0.194,0.310,0.299,0.283,0.158,0.096,south-southwest,3.4,No
2018/12/03,01:40,0.262,0.193,0.309,0.299,0.281,0.158,0.096,south-southwest,4.3,No
2018/12/03,01:50,0.263,0.194,0.310,0.300,0.282,0.158,0.095,south-southwest,5.2,No
2018/12/03,02:00,0.263,0.194,0.311,0.299,0.283,0.158,0.096,south,5.0,No
2018/12/03,02:10,0.262,0.193,0.310,0.299,0.280,0.158,0.096,south-southwest,4.1,No
2018/12/03,02:20,0.262,0.193,0.310,0.299,0.282,0.158,0.096,southwest,3.1,No
2018/12/03,02:30,0.263,0.193,0.311,0.300,0.281,0.157,0.096,west-southwest,3.0,No
2018/12/03,02:40,0.262,0.193,0.309,0.298,0.281,0.157,0.096,southwest,2.8,No
2018/12/03,02:50,0.262,0.192,0.310,0.300,0.281,0.158,0.095,southwest,3.5,No
2018/12/03,03:00,0.262,0.193,0.310,0.299,0.282,0.157,0.096,southwest,4.4,No
2018/12/03,03:10,0.264,0.193,0.309,0.298,0.281,0.157,0.095,southwest,4.4,No
2018/12/03,03:20,0.262,0.192,0.309,0.298,0.283,0.157,0.096,west-southwest,4.0,No
2018/12/03,03:30,0.263,0.194,0.311,0.300,0.281,0.156,0.096,west-southwest,4.6,No
2018/12/03,03:40,0.264,0.193,0.311,0.299,0.282,0.157,0.095,west-southwest,3.1,No
2018/12/03,03:50,0.262,0.193,0.310,0.299,0.282,0.159,0.096,-,CALM,No
2018/12/03,04:00,0.262,0.194,0.310,0.299,0.280,0.157,0.096,-,CALM,No
2018/12/03,04:10,0.264,0.194,0.310,0.299,0.281,0.158,0.096,east,0.7,No
2018/12/03,04:20,0.263,0.192,0.310,0.300,0.281,0.158,0.096,north,0.8,No
2018/12/03,04:30,0.262,0.194,0.310,0.298,0.281,0.157,0.097,north-northeast,2.8,No
2018/12/03,04:40,0.265,0.192,0.310,0.299,0.283,0.157,0.097,northeast,3.4,No
2018/12/03,04:50,0.263,0.193,0.311,0.299,0.282,0.157,0.096,north-northeast,3.6,No
2018/12/03,05:00,0.264,0.193,0.311,0.299,0.283,0.159,0.096,north,5.1,No
2018/12/03,05:10,0.263,0.193,0.310,0.299,0.283,0.158,0.097,north,5.9,No
2018/12/03,05:20,0.264,0.193,0.310,0.301,0.281,0.158,0.096,north,5.2,No
2018/12/03,05:30,0.264,0.195,0.311,0.299,0.284,0.157,0.096,north,4.7,No
2018/12/03,05:40,0.264,0.193,0.309,0.299,0.282,0.159,0.097,north,5.2,No
2018/12/03,05:50,0.263,0.193,0.311,0.300,0.283,0.157,0.097,north-northwest,5.6,No
2018/12/03,06:00,0.265,0.193,0.311,0.299,0.283,0.157,0.096,north-northwest,6.3,No
2018/12/03,06:10,0.263,0.194,0.310,0.300,0.282,0.158,0.097,north-northwest,6.2,No
2018/12/03,06:20,0.263,0.194,0.310,0.300,0.281,0.158,0.096,north-northwest,5.9,No
2018/12/03,06:30,0.264,0.194,0.310,0.300,0.282,0.159,0.097,north-northwest,5.2,No
2018/12/03,06:40,0.263,0.194,0.310,0.299,0.281,0.158,0.097,north-northwest,5.3,No
2018/12/03,06:50,0.263,0.193,0.311,0.300,0.282,0.158,0.096,north-northwest,5.4,No
2018/12/03,07:00,0.264,0.193,0.312,0.300,0.283,0.158,0.097,north-northwest,6.0,No
2018/12/03,07:10,0.264,0.193,0.310,0.298,0.280,0.157,0.097,north,5.8,No
2018/12/03,07:20,0.263,0.194,0.310,0.300,0.284,0.157,0.095,north-northwest,5.9,No
2018/12/03,07:30,0.263,0.194,0.311,0.299,0.282,0.157,0.097,north-northwest,4.9,No
2018/12/03,07:40,0.263,0.193,0.310,0.298,0.281,0.157,0.096,north-northwest,5.3,No
2018/12/03,07:50,0.263,0.193,0.310,0.300,0.283,0.157,0.096,north,5.2,No
2018/12/03,08:00,0.264,0.193,0.310,0.298,0.281,0.156,0.095,north,4.2,No
2018/12/03,08:10,0.263,0.192,0.308,0.299,0.283,0.158,0.096,north,4.7,No
2018/12/03,08:20,0.265,0.192,0.311,0.299,0.282,0.157,0.097,north-northwest,5.2,No
2018/12/03,08:30,0.264,0.193,0.310,0.299,0.280,0.158,0.095,north-northwest,4.2,No
2018/12/03,08:40,0.262,0.192,0.309,0.299,0.283,0.158,0.096,north-northwest,3.8,No
2018/12/03,08:50,0.264,0.193,0.312,0.299,0.280,0.157,0.096,north-northwest,3.0,No
2018/12/03,09:00,0.262,0.192,0.309,0.299,0.283,0.156,0.096,north-northwest,2.6,No
2018/12/03,09:10,0.263,0.193,0.310,0.300,0.282,0.157,0.096,northwest,1.4,No
2018/12/03,09:20,0.263,0.193,0.309,0.297,0.283,0.156,0.095,north-northwest,1.7,No
2018/12/03,09:30,0.263,0.192,0.310,0.298,0.282,0.157,0.096,north-northwest,1.4,No
2018/12/03,09:40,0.264,0.193,0.309,0.298,0.281,0.156,0.096,northwest,1.0,No
2018/12/03,09:50,0.262,0.193,0.308,0.298,0.282,0.158,0.097,north-northwest,0.8,No
2018/12/03,10:00,0.264,0.194,0.311,0.298,0.281,0.158,0.096,-,CALM,No
2018/12/03,10:10,0.261,0.193,0.310,0.299,0.283,0.156,0.096,-,CALM,No
2018/12/03,10:20,0.264,0.193,0.310,0.299,0.281,0.157,0.096,southwest,0.6,No
2018/12/03,10:30,0.264,0.195,0.310,0.300,0.283,0.156,0.097,southwest,1.4,No
2018/12/03,10:40,0.264,0.193,0.310,0.298,0.281,0.158,0.096,south-southwest,2.0,No
2018/12/03,10:50,0.263,0.195,0.311,0.298,0.283,0.157,0.097,south-southwest,2.4,No
2018/12/03,11:00,0.265,0.192,0.310,0.300,0.282,0.158,0.096,south-southwest,1.8,No
2018/12/03,11:10,0.265,0.192,0.312,0.298,0.282,0.157,0.097,south,1.9,No
2018/12/03,11:20,0.265,0.195,0.310,0.298,0.280,0.157,0.096,south-southwest,1.8,No
2018/12/03,11:30,0.265,0.193,0.311,0.301,0.282,0.157,0.096,south,2.2,No
2018/12/03,11:40,0.265,0.193,0.310,0.298,0.282,0.158,0.096,south,2.6,No
2018/12/03,11:50,0.262,0.192,0.310,0.300,0.283,0.158,0.096,south,2.1,No
2018/12/03,12:00,0.263,0.193,0.309,0.298,0.282,0.157,0.096,southeast,1.1,No
2018/12/03,12:10,0.263,0.194,0.309,0.299,0.281,0.157,0.096,southeast,0.8,No
2018/12/03,12:20,0.264,0.193,0.311,0.300,0.283,0.157,0.097,east,0.6,No
2018/12/03,12:30,0.263,0.194,0.309,0.299,0.281,0.159,0.096,east-southeast,1.2,Yes
2018/12/03,12:40,0.262,0.195,0.310,0.300,0.283,0.158,0.096,east-northeast,1.5,Yes
2018/12/03,12:50,0.263,0.194,0.311,0.298,0.282,0.158,0.097,northeast,1.5,No
2018/12/03,13:00,0.262,0.193,0.310,0.300,0.285,0.159,0.096,east-northeast,0.9,No
2018/12/03,13:10,0.265,0.193,0.312,0.300,0.281,0.158,0.097,northeast,1.1,No
2018/12/03,13:20,0.260,0.194,0.310,0.300,0.283,0.158,0.096,north-northeast,1.5,No
2018/12/03,13:30,0.259,0.193,0.311,0.299,0.281,0.158,0.096,north,1.6,No
2018/12/03,13:40,0.259,0.194,0.309,0.299,0.281,0.158,0.096,north,2.3,No
2018/12/03,13:50,0.259,0.193,0.311,0.299,0.282,0.157,0.096,north,1.7,No
2018/12/03,14:00,0.259,0.194,0.310,0.298,0.282,0.158,0.097,north,1.5,No
2018/12/03,14:10,0.259,0.193,0.310,0.298,0.281,0.156,0.095,north-northeast,1.6,No
2018/12/03,14:20,0.260,0.192,0.309,0.297,0.281,0.158,0.095,north-northeast,1.3,No
2018/12/03,14:30,0.259,0.194,0.311,0.299,0.283,0.157,0.096,north,1.3,No
2018/12/03,14:40,0.261,0.193,0.310,0.298,0.282,0.158,0.096,north-northeast,1.5,No
2018/12/03,14:50,0.259,0.194,0.310,0.299,0.283,0.157,0.096,north-northeast,1.1,Yes
2018/12/03,15:00,0.260,0.194,0.311,0.298,0.281,0.157,0.096,north-northeast,0.6,No
2018/12/03,15:10,0.263,0.193,0.310,0.300,0.284,0.158,0.097,east-northeast,0.6,No
2018/12/03,15:20,0.260,0.194,0.312,0.299,0.281,0.158,0.095,east-northeast,1.2,No
2018/12/03,15:30,0.261,0.194,0.310,0.299,0.282,0.157,0.096,east-northeast,0.9,No
2018/12/03,15:40,0.260,0.194,0.311,0.300,0.280,0.157,0.097,east,0.9,No
2018/12/03,15:50,0.261,0.193,0.309,0.298,0.283,0.158,0.096,northeast,1.3,No
2018/12/03,16:00,0.261,0.192,0.310,0.300,0.282,0.157,0.096,northeast,1.3,No
2018/12/03,16:10,0.261,0.194,0.311,0.297,0.283,0.157,0.096,northeast,1.3,No
2018/12/03,16:20,0.261,0.193,0.308,0.299,0.282,0.156,0.096,northeast,1.5,No
2018/12/03,16:30,0.260,0.195,0.310,0.299,0.281,0.157,0.097,-,CALM,No
2018/12/03,16:40,0.263,0.193,0.311,0.298,0.284,0.157,0.095,east-southeast,1.0,No
2018/12/03,16:50,0.261,0.193,0.309,0.300,0.281,0.157,0.096,east-southeast,0.9,No
2018/12/03,17:00,0.261,0.193,0.312,0.298,0.283,0.157,0.096,southeast,1.2,No
2018/12/03,17:10,0.262,0.193,0.309,0.299,0.281,0.157,0.096,south-southeast,1.3,No
2018/12/03,17:20,0.260,0.194,0.310,0.299,0.281,0.157,0.095,south-southeast,1.3,No
2018/12/03,17:30,0.262,0.194,0.311,0.298,0.283,0.157,0.095,east-southeast,1.3,No
2018/12/03,17:40,0.261,0.192,0.310,0.300,0.282,0.158,0.096,east,1.0,No
2018/12/03,17:50,0.261,0.193,0.311,0.299,0.283,0.158,0.096,-,CALM,No
2018/12/03,18:00,0.262,0.193,0.310,0.299,0.281,0.159,0.096,-,CALM,No
2018/12/03,18:10,0.261,0.193,0.312,0.299,0.283,0.158,0.097,northeast,0.8,No
2018/12/03,18:20,0.261,0.194,0.311,0.298,0.282,0.157,0.095,north-northeast,1.3,No
2018/12/03,18:30,0.260,0.194,0.310,0.300,0.282,0.159,0.096,north-northeast,1.6,No
2018/12/03,18:40,0.261,0.194,0.311,0.300,0.283,0.158,0.096,north-northeast,1.5,No
2018/12/03,18:50,0.263,0.195,0.311,0.300,0.283,0.159,0.096,north-northeast,1.6,No
2018/12/03,19:00,0.262,0.193,0.309,0.300,0.282,0.158,0.096,north-northwest,1.5,No
2018/12/03,19:10,0.262,0.193,0.311,0.298,0.284,0.158,0.097,north-northwest,0.8,No
2018/12/03,19:20,0.261,0.195,0.311,0.298,0.281,0.158,0.096,north,1.3,No
2018/12/03,19:30,0.260,0.194,0.312,0.301,0.283,0.157,0.096,-,CALM,No
2018/12/03,19:40,0.261,0.194,0.312,0.299,0.282,0.158,0.096,-,CALM,No
2018/12/03,19:50,0.261,0.195,0.311,0.299,0.281,0.158,0.097,northeast,0.6,No
2018/12/03,20:00,0.261,0.194,0.311,0.301,0.281,0.158,0.097,-,CALM,No
2018/12/03,20:10,0.262,0.195,0.311,0.299,0.281,0.158,0.098,-,CALM,No
2018/12/03,20:20,0.263,0.194,0.310,0.300,0.283,0.157,0.096,southeast,0.8,No
2018/12/03,20:30,0.260,0.194,0.312,0.300,0.282,0.158,0.097,southeast,0.8,No
2018/12/03,20:40,0.263,0.194,0.312,0.299,0.282,0.158,0.096,south,0.8,No
2018/12/03,20:50,0.262,0.194,0.310,0.301,0.282,0.158,0.096,south,0.7,No
2018/12/03,21:00,0.262,0.194,0.310,0.300,0.281,0.158,0.097,south,0.6,No
2018/12/03,21:10,0.262,0.196,0.311,0.299,0.284,0.157,0.097,south,1.0,No
2018/12/03,21:20,0.262,0.194,0.309,0.301,0.282,0.160,0.097,south,1.8,No
2018/12/03,21:30,0.261,0.195,0.311,0.299,0.283,0.159,0.097,south,1.5,No
2018/12/03,21:40,0.263,0.195,0.310,0.299,0.283,0.158,0.097,south-southeast,1.5,No
2018/12/03,21:50,0.262,0.194,0.310,0.301,0.282,0.159,0.098,southeast,2.4,No
2018/12/03,22:00,0.263,0.193,0.312,0.299,0.283,0.159,0.097,south-southeast,2.4,No
2018/12/03,22:10,0.263,0.195,0.312,0.300,0.283,0.158,0.097,south-southeast,2.2,No
2018/12/03,22:20,0.261,0.194,0.312,0.301,0.282,0.159,0.097,southeast,2.6,No
2018/12/03,22:30,0.262,0.195,0.311,0.299,0.283,0.158,0.097,south-southeast,2.7,No
2018/12/03,22:40,0.262,0.196,0.310,0.301,0.283,0.158,0.096,south-southeast,2.2,No
2018/12/03,22:50,0.261,0.195,0.311,0.300,0.282,0.158,0.098,southeast,1.8,No
2018/12/03,23:00,0.263,0.195,0.312,0.301,0.284,0.159,0.097,south-southeast,0.8,No
2018/12/03,23:10,0.262,0.194,0.311,0.301,0.282,0.158,0.096,southeast,0.7,No
2018/12/03,23:20,0.262,0.195,0.311,0.299,0.284,0.159,0.097,southeast,1.0,No
2018/12/03,23:30,0.262,0.195,0.311,0.299,0.283,0.158,0.097,-,CALM,No
2018/12/03,23:40,0.263,0.193,0.311,0.301,0.282,0.159,0.097,-,CALM,No
2018/12/03,23:50,0.262,0.194,0.312,0.300,0.283,0.158,0.097,southeast,1.1,No
